QPF
0.00 0.00 0.01 0.05 0.19 0.10 0.49 0.21 0.01 0.00 0.00 0.00 0.00 0.00 0.00 0.00 0.00 0.00 0.00 0.00 0.00 0.00 0.00 0.00 0.00 0.00 0.00 0.00 0.00 0.00 0.00 0.00 0.00 0.00 0.00 0.00 0.00 0.00 0.00 0.00 0.00 0.00 0.00 0.00 0.00
0.00 0.00 0.07 0.16 0.33 0.21 0.37 0.08 0.00 0.00 0.00 0.00 0.00 0.00 0.00 0.00 0.00 0.00 0.00 0.00 0.00 0.00 0.00 0.00 0.00 0.00 0.00 0.00 0.00 0.00 0.00 0.00 0.00 0.00 0.00 0.00 0.00 0.00 0.00 0.00 0.00 0.00 0.00 0.00 0.00
0.02 0.10 0.17 0.30 0.36 0.44 0.25 0.03 0.00 0.00 0.00 0.00 0.00 0.00 0.00 0.00 0.00 0.00 0.00 0.00 0.00 0.00 0.00 0.00 0.00 0.00 0.00 0.00 0.00 0.00 0.00 0.00 0.00 0.00 0.00 0.00 0.00 0.00 0.00 0.00 0.00 0.00 0.00 0.00 0.00
0.14 0.14 0.09 0.21 0.29 0.41 0.09 0.01 0.00 0.00 0.00 0.00 0.00 0.00 0.00 0.00 0.00 0.00 0.00 0.00 0.00 0.00 0.00 0.00 0.00 0.00 0.00 0.00 0.00 0.00 0.00 0.00 0.00 0.00 0.00 0.00 0.00 0.00 0.00 0.00 0.00 0.00 0.00 0.00 0.00
0.07 0.05 0.03 0.06 0.15 0.17 0.04 0.00 0.00 0.00 0.00 0.00 0.00 0.00 0.00 0.00 0.00 0.00 0.00 0.00 0.00 0.00 0.00 0.00 0.00 0.00 0.00 0.00 0.00 0.00 0.00 0.00 0.00 0.00 0.00 0.00 0.00 0.00 0.00 0.00 0.00 0.00 0.00 0.00 0.00
0.04 0.04 0.03 0.05 0.04 0.02 0.00 0.00 0.00 0.00 0.00 0.00 0.00 0.00 0.00 0.00 0.00 0.00 0.00 0.00 0.00 0.00 0.00 0.00 0.00 0.00 0.00 0.00 0.00 0.00 0.00 0.00 0.00 0.00 0.00 0.00 0.00 0.00 0.00 0.00 0.00 0.00 0.00 0.00 0.00
0.10 0.06 0.04 0.04 0.01 0.00 0.00 0.00 0.00 0.00 0.00 0.00 0.00 0.00 0.00 0.00 0.00 0.00 0.00 0.00 0.00 0.00 0.00 0.00 0.00 0.00 0.00 0.00 0.00 0.00 0.00 0.00 0.00 0.00 0.00 0.00 0.00 0.00 0.00 0.00 0.00 0.00 0.00 0.00 0.00
0.05 0.04 0.04 0.01 0.00 0.00 0.00 0.00 0.00 0.00 0.00 0.00 0.00 0.00 0.00 0.00 0.00 0.00 0.00 0.00 0.00 0.00 0.00 0.00 0.00 0.00 0.00 0.00 0.00 0.00 0.00 0.00 0.00 0.00 0.00 0.00 0.00 0.00 0.00 0.00 0.00 0.00 0.00 0.00 0.00
0.02 0.01 0.00 0.00 0.00 0.00 0.00 0.00 0.00 0.00 0.00 0.00 0.00 0.00 0.00 0.00 0.00 0.00 0.00 0.00 0.00 0.00 0.00 0.00 0.00 0.00 0.00 0.00 0.00 0.00 0.00 0.00 0.00 0.00 0.00 0.00 0.00 0.00 0.00 0.00 0.00 0.00 0.00 0.00 0.00
0.00 0.00 0.00 0.00 0.00 0.00 0.00 0.00 0.00 0.00 0.00 0.00 0.00 0.00 0.00 0.00 0.00 0.00 0.00 0.00 0.00 0.00 0.00 0.00 0.00 0.00 0.00 0.00 0.00 0.00 0.00 0.00 0.00 0.00 0.00 0.00 0.00 0.00 0.00 0.00 0.00 0.00 0.00 0.00 0.00
0.00 0.00 0.00 0.00 0.00 0.00 0.00 0.00 0.00 0.00 0.00 0.00 0.00 0.00 0.00 0.00 0.00 0.00 0.00 0.00 0.00 0.00 0.00 0.00 0.00 0.00 0.00 0.00 0.00 0.00 0.00 0.00 0.00 0.00 0.00 0.00 0.00 0.00 0.00 0.00 0.00 0.00 0.00 0.00 0.00
0.00 0.00 0.00 0.00 0.00 0.00 0.00 0.00 0.00 0.00 0.00 0.00 0.00 0.00 0.00 0.00 0.00 0.00 0.00 0.00 0.00 0.00 0.00 0.00 0.00 0.00 0.00 0.00 0.00 0.00 0.00 0.00 0.00 0.00 0.00 0.00 0.00 0.00 0.00 0.00 0.00 0.00 0.00 0.00 0.00
0.00 0.00 0.00 0.00 0.00 0.00 0.00 0.00 0.00 0.00 0.00 0.00 0.00 0.00 0.00 0.00 0.00 0.00 0.00 0.00 0.00 0.00 0.00 0.00 0.00 0.00 0.00 0.00 0.00 0.00 0.00 0.00 0.00 0.00 0.00 0.00 0.00 0.00 0.00 0.00 0.00 0.00 0.00 0.00 0.00
0.00 0.00 0.00 0.00 0.00 0.00 0.00 0.00 0.00 0.00 0.00 0.00 0.00 0.00 0.00 0.00 0.00 0.00 0.00 0.00 0.00 0.00 0.00 0.00 0.00 0.00 0.00 0.00 0.00 0.00 0.00 0.00 0.00 0.00 0.00 0.00 0.00 0.00 0.00 0.00 0.00 0.00 0.00 0.00 0.00
0.00 0.00 0.00 0.00 0.00 0.00 0.00 0.00 0.00 0.00 0.00 0.00 0.00 0.00 0.00 0.00 0.00 0.00 0.00 0.00 0.00 0.00 0.00 0.00 0.00 0.00 0.00 0.00 0.00 0.00 0.00 0.00 0.00 0.00 0.00 0.00 0.00 0.00 0.00 0.00 0.00 0.00 0.00 0.00 0.00
0.00 0.00 0.00 0.00 0.00 0.00 0.00 0.00 0.00 0.00 0.00 0.00 0.00 0.00 0.00 0.00 0.00 0.00 0.00 0.00 0.00 0.00 0.00 0.00 0.00 0.00 0.00 0.00 0.00 0.00 0.00 0.00 0.00 0.00 0.00 0.00 0.00 0.00 0.00 0.00 0.00 0.00 0.00 0.00 0.00
0.00 0.00 0.00 0.00 0.00 0.00 0.00 0.00 0.00 0.00 0.00 0.00 0.00 0.00 0.00 0.00 0.00 0.00 0.00 0.00 0.00 0.00 0.00 0.00 0.00 0.00 0.00 0.00 0.00 0.00 0.00 0.00 0.00 0.00 0.00 0.00 0.00 0.00 0.00 0.00 0.00 0.00 0.00 0.00 0.00
0.00 0.00 0.00 0.00 0.00 0.00 0.00 0.00 0.00 0.00 0.00 0.00 0.00 0.00 0.00 0.00 0.00 0.00 0.00 0.00 0.00 0.00 0.00 0.00 0.00 0.00 0.00 0.00 0.00 0.00 0.00 0.00 0.00 0.00 0.00 0.00 0.00 0.00 0.00 0.00 0.00 0.00 0.00 0.00 0.00
0.00 0.00 0.00 0.00 0.00 0.00 0.00 0.00 0.00 0.00 0.00 0.00 0.00 0.00 0.00 0.00 0.00 0.00 0.00 0.00 0.00 0.00 0.00 0.00 0.00 0.00 0.00 0.00 0.00 0.00 0.00 0.00 0.00 0.00 0.00 0.00 0.00 0.00 0.00 0.00 0.00 0.00 0.00 0.00 0.00
0.00 0.00 0.00 0.00 0.00 0.00 0.00 0.00 0.00 0.00 0.00 0.00 0.00 0.00 0.00 0.00 0.00 0.00 0.00 0.00 0.00 0.00 0.00 0.00 0.00 0.00 0.00 0.00 0.00 0.00 0.00 0.00 0.00 0.00 0.00 0.00 0.00 0.00 0.00 0.00 0.00 0.00 0.00 0.00 0.00
0.00 0.00 0.00 0.00 0.00 0.00 0.00 0.00 0.00 0.00 0.00 0.00 0.00 0.00 0.00 0.00 0.00 0.00 0.00 0.00 0.00 0.00 0.00 0.00 0.00 0.00 0.00 0.00 0.00 0.00 0.00 0.00 0.00 0.00 0.00 0.00 0.00 0.00 0.00 0.00 0.00 0.00 0.00 0.00 0.00
0.00 0.00 0.00 0.00 0.00 0.00 0.00 0.00 0.00 0.00 0.00 0.00 0.00 0.00 0.00 0.00 0.00 0.00 0.00 0.00 0.00 0.00 0.00 0.00 0.00 0.00 0.00 0.00 0.00 0.00 0.00 0.00 0.00 0.00 0.00 0.00 0.00 0.00 0.00 0.00 0.00 0.00 0.00 0.00 0.00
0.00 0.00 0.00 0.00 0.00 0.00 0.00 0.00 0.00 0.00 0.00 0.00 0.00 0.00 0.00 0.00 0.00 0.00 0.00 0.00 0.00 0.00 0.00 0.00 0.00 0.00 0.00 0.00 0.00 0.00 0.00 0.00 0.00 0.00 0.00 0.00 0.00 0.00 0.00 0.00 0.00 0.00 0.00 0.00 0.00
0.00 0.00 0.00 0.00 0.00 0.00 0.00 0.00 0.00 0.00 0.00 0.00 0.00 0.00 0.00 0.00 0.00 0.00 0.00 0.00 0.00 0.00 0.00 0.00 0.00 0.00 0.00 0.00 0.00 0.00 0.00 0.00 0.00 0.00 0.00 0.00 0.00 0.00 0.00 0.00 0.00 0.00 0.00 0.00 0.00
0.00 0.00 0.00 0.00 0.00 0.00 0.00 0.00 0.00 0.00 0.00 0.00 0.00 0.00 0.00 0.00 0.00 0.00 0.00 0.00 0.00 0.00 0.00 0.00 0.00 0.00 0.00 0.00 0.00 0.00 0.00 0.00 0.00 0.00 0.00 0.00 0.00 0.00 0.00 0.00 0.00 0.00 0.00 0.00 0.00
0.00 0.00 0.00 0.00 0.00 0.00 0.00 0.00 0.00 0.00 0.00 0.00 0.00 0.00 0.00 0.00 0.00 0.00 0.00 0.00 0.00 0.00 0.00 0.00 0.00 0.00 0.00 0.00 0.00 0.00 0.00 0.00 0.00 0.00 0.00 0.00 0.00 0.00 0.00 0.00 0.00 0.00 0.00 0.00 0.00
0.00 0.00 0.00 0.00 0.00 0.00 0.00 0.00 0.00 0.00 0.00 0.00 0.00 0.00 0.00 0.00 0.00 0.00 0.00 0.00 0.00 0.00 0.00 0.00 0.00 0.00 0.00 0.00 0.00 0.00 0.00 0.00 0.00 0.00 0.00 0.00 0.00 0.00 0.00 0.00 0.00 0.00 0.00 0.00 0.00
MSLP
1011.14 1011.68 1011.97 1012.32 1012.69 1013.13 1013.46 1013.64 1014.08 1014.70 1014.91 1015.36 1015.63 1015.68 1015.80 1015.79 1015.54 1015.94 1016.68 1017.26 1016.53 1015.83 1015.54 1015.41 1015.29 1015.54 1015.78 1017.03 1017.59 1017.96 1019.02 1020.09 1020.00 1019.90 1019.79 1019.68 1019.51 1019.10 1019.03 1018.96 1018.65 1018.35 1018.40 1018.57 1018.49
1011.41 1011.80 1012.21 1012.38 1013.05 1013.58 1013.20 1013.65 1014.41 1014.97 1015.22 1015.67 1015.92 1015.96 1015.97 1015.98 1016.03 1017.04 1017.99 1017.00 1016.34 1015.92 1015.87 1015.79 1016.08 1016.13 1017.22 1018.02 1018.45 1018.83 1019.90 1020.30 1020.26 1020.12 1020.18 1020.19 1020.15 1020.03 1019.68 1019.47 1019.18 1018.82 1018.73 1018.79 1018.81
1011.80 1012.01 1012.42 1012.86 1013.25 1013.56 1013.71 1013.86 1014.76 1015.27 1015.66 1016.05 1016.20 1016.12 1015.99 1016.12 1016.67 1018.55 1017.67 1017.03 1016.51 1016.13 1016.06 1016.22 1016.39 1016.76 1018.08 1018.77 1019.48 1019.79 1020.35 1020.42 1020.41 1020.27 1020.39 1020.51 1020.43 1020.39 1020.20 1019.76 1019.54 1019.57 1019.49 1019.32 1019.22
1011.76 1011.98 1012.54 1013.24 1013.63 1013.29 1013.91 1014.64 1015.15 1015.62 1016.04 1016.29 1016.31 1016.21 1016.15 1016.42 1018.73 1018.94 1018.12 1017.40 1016.89 1016.11 1016.35 1016.64 1016.96 1017.87 1019.09 1019.85 1020.08 1020.54 1020.78 1020.57 1020.56 1020.51 1020.55 1020.71 1020.78 1020.65 1020.46 1019.68 1019.54 1019.71 1019.66 1019.64 1019.56
1012.36 1012.68 1012.85 1013.60 1013.67 1013.91 1014.53 1015.07 1015.56 1016.03 1016.31 1016.41 1016.38 1016.38 1016.55 1018.22 1019.71 1019.04 1018.44 1017.72 1017.04 1016.75 1017.42 1017.49 1018.03 1018.72 1019.77 1020.39 1020.68 1020.88 1021.06 1020.84 1020.85 1020.80 1020.84 1020.93 1021.01 1021.03 1020.09 1019.61 1019.48 1019.29 1019.37 1019.61 1019.64
1012.83 1013.09 1013.92 1013.95 1014.32 1014.61 1015.15 1015.54 1015.94 1016.24 1016.37 1016.44 1016.48 1016.57 1017.25 1019.08 1019.73 1019.36 1018.81 1018.19 1017.99 1017.62 1018.15 1018.13 1018.70 1019.09 1020.13 1020.89 1021.26 1021.49 1021.28 1021.19 1021.11 1020.99 1020.99 1021.27 1021.12 1021.07 1019.72 1019.44 1019.36 1019.35 1019.41 1019.55 1019.53
1012.76 1013.18 1014.39 1014.46 1014.72 1015.12 1015.55 1015.91 1016.23 1016.37 1016.50 1016.59 1016.59 1016.90 1018.21 1020.01 1019.68 1019.33 1018.90 1018.75 1018.62 1018.40 1018.62 1018.94 1018.97 1019.22 1020.53 1021.42 1021.79 1021.73 1021.61 1021.38 1021.44 1021.41 1021.44 1021.48 1020.87 1020.60 1019.60 1019.62 1019.67 1019.70 1019.59 1019.53 1019.53
1014.66 1014.83 1015.21 1015.34 1015.63 1015.89 1016.10 1016.23 1016.41 1016.66 1016.76 1016.82 1016.80 1017.27 1019.54 1019.62 1019.50 1019.30 1019.11 1018.91 1018.92 1018.76 1018.84 1019.16 1019.30 1020.11 1021.35 1021.90 1022.24 1022.62 1022.45 1022.53 1021.96 1021.83 1021.95 1021.95 1020.93 1019.99 1019.70 1019.94 1019.90 1019.79 1019.70 1019.67 1019.55
1015.97 1016.12 1016.30 1016.52 1016.55 1016.62 1016.60 1016.53 1016.69 1016.79 1016.83 1016.71 1017.01 1017.74 1020.15 1019.67 1019.79 1019.81 1019.69 1019.66 1019.43 1019.27 1019.37 1019.47 1020.06 1021.81 1022.41 1022.91 1023.53 1023.79 1023.67 1023.46 1022.77 1022.55 1022.52 1022.48 1021.24 1020.28 1020.14 1020.18 1020.07 1019.86 1019.85 1019.73 1019.61
1016.71 1016.81 1016.93 1017.03 1017.05 1017.06 1017.07 1017.00 1016.93 1016.81 1017.15 1017.07 1018.09 1018.79 1020.47 1020.95 1020.54 1020.36 1019.93 1019.73 1019.96 1020.01 1020.17 1020.75 1022.01 1023.12 1024.06 1023.98 1024.67 1024.68 1024.59 1024.19 1023.83 1023.24 1023.09 1022.99 1021.38 1020.29 1020.12 1020.13 1019.98 1019.82 1019.74 1019.69 1019.52
1017.44 1017.53 1017.57 1017.57 1017.57 1017.39 1017.19 1017.40 1018.33 1018.85 1019.68 1020.95 1021.12 1020.96 1021.11 1020.92 1020.65 1020.64 1020.44 1020.26 1020.51 1021.10 1022.17 1022.63 1023.46 1024.81 1024.99 1024.69 1024.67 1024.78 1024.92 1024.83 1024.17 1023.79 1023.72 1022.86 1021.78 1019.86 1019.31 1019.48 1019.58 1019.66 1019.58 1019.55 1019.42
1018.12 1018.10 1018.10 1018.12 1018.04 1017.89 1018.44 1019.94 1021.12 1021.23 1021.67 1021.45 1021.27 1021.33 1021.30 1021.20 1021.03 1020.99 1020.66 1021.21 1021.66 1022.72 1023.05 1023.54 1024.58 1024.96 1024.77 1024.68 1024.72 1024.81 1025.00 1024.86 1024.30 1024.18 1024.34 1023.05 1021.28 1019.60 1019.00 1018.78 1018.94 1019.22 1019.43 1019.41 1019.36
1019.10 1018.84 1018.74 1018.55 1018.64 1018.89 1020.20 1021.21 1021.34 1021.23 1021.54 1022.09 1021.81 1021.61 1021.57 1021.39 1021.88 1021.84 1021.69 1022.05 1022.69 1023.43 1023.87 1024.23 1024.86 1024.63 1024.55 1024.52 1024.59 1024.74 1024.96 1025.09 1025.49 1024.79 1024.39 1023.85 1021.57 1019.69 1018.69 1018.56 1018.59 1018.84 1019.02 1019.16 1019.14
1019.76 1019.40 1018.90 1018.70 1019.09 1020.38 1021.15 1021.38 1021.29 1021.33 1022.21 1023.11 1022.08 1021.80 1021.69 1021.67 1022.18 1022.16 1022.17 1022.52 1023.04 1023.80 1024.20 1024.64 1024.58 1024.44 1024.37 1024.36 1024.47 1024.52 1024.67 1025.15 1025.57 1025.97 1025.75 1024.90 1022.92 1020.17 1019.02 1018.51 1018.23 1018.10 1018.44 1018.44 1018.60
1020.20 1020.02 1019.77 1019.23 1020.21 1021.06 1021.62 1021.32 1021.09 1021.30 1022.93 1023.56 1022.40 1021.56 1021.70 1022.08 1022.47 1022.28 1022.24 1022.15 1023.19 1023.91 1024.49 1024.72 1024.44 1024.28 1024.12 1023.99 1024.22 1024.57 1024.87 1025.50 1025.93 1026.52 1026.68 1025.52 1024.65 1020.05 1019.25 1018.41 1017.83 1017.67 1017.84 1017.93 1018.11
1020.64 1020.33 1020.05 1020.34 1020.87 1021.59 1021.43 1021.22 1021.25 1022.24 1024.04 1023.62 1022.81 1022.26 1022.12 1022.26 1022.41 1022.32 1022.28 1022.48 1023.28 1023.88 1024.16 1024.43 1024.14 1024.14 1024.01 1024.00 1024.31 1024.65 1025.35 1026.16 1026.66 1026.97 1027.05 1025.80 1024.94 1020.79 1019.12 1017.90 1017.53 1017.44 1017.54 1017.57 1017.70
1020.80 1020.60 1020.45 1020.83 1021.68 1021.66 1021.55 1021.81 1022.71 1023.57 1024.95 1024.22 1023.44 1022.88 1022.81 1022.85 1022.64 1022.60 1022.86 1023.31 1023.90 1024.82 1025.21 1024.74 1024.40 1024.07 1024.02 1024.22 1024.45 1025.02 1026.15 1027.06 1027.73 1027.56 1027.11 1026.07 1025.28 1020.28 1018.07 1017.32 1017.14 1017.13 1017.08 1017.16 1017.24
1020.80 1020.76 1021.17 1021.39 1021.59 1021.68 1021.95 1022.60 1023.85 1024.83 1024.48 1023.99 1023.63 1023.29 1023.21 1023.06 1022.98 1022.98 1023.31 1023.91 1024.17 1024.61 1025.42 1025.44 1024.61 1024.24 1024.14 1024.34 1024.83 1025.56 1026.38 1027.52 1028.51 1028.76 1027.73 1026.32 1024.22 1019.00 1017.30 1016.74 1016.49 1016.54 1016.71 1016.95 1017.06
1020.96 1021.45 1021.44 1021.63 1021.66 1021.94 1022.54 1023.88 1024.76 1024.61 1024.17 1023.83 1023.43 1023.29 1023.29 1023.09 1023.16 1023.17 1023.35 1023.75 1024.00 1024.28 1024.91 1025.34 1024.84 1024.29 1024.21 1024.20 1024.71 1025.52 1026.34 1027.07 1028.04 1028.72 1028.38 1025.35 1022.52 1018.57 1017.07 1016.49 1016.15 1016.32 1016.60 1016.54 1016.50
1021.60 1021.97 1021.84 1021.55 1021.63 1022.04 1023.07 1024.70 1024.85 1024.38 1023.90 1023.57 1023.52 1023.54 1023.52 1023.45 1023.44 1023.32 1023.36 1023.38 1023.69 1024.02 1024.37 1025.18 1025.22 1024.51 1024.24 1024.19 1024.76 1025.03 1026.02 1026.86 1027.89 1028.61 1028.16 1025.12 1023.22 1019.87 1017.62 1016.63 1016.25 1016.27 1016.18 1016.00 1016.00
1021.95 1022.44 1021.59 1021.46 1021.55 1022.15 1024.40 1024.72 1024.35 1023.88 1023.53 1023.44 1023.47 1023.57 1023.63 1023.70 1023.64 1023.66 1023.60 1023.46 1023.56 1024.09 1024.39 1024.97 1025.54 1025.13 1024.70 1024.42 1024.52 1025.29 1025.73 1026.67 1027.49 1027.97 1028.05 1026.56 1021.59 1018.16 1017.31 1016.59 1016.25 1016.10 1015.90 1015.76 1015.79
1022.53 1022.82 1021.80 1021.28 1022.26 1023.94 1024.65 1024.14 1023.67 1023.65 1023.41 1023.37 1023.35 1023.48 1023.64 1023.78 1023.91 1023.86 1023.73 1023.41 1023.38 1023.81 1024.56 1025.00 1025.70 1025.78 1024.88 1024.54 1024.49 1024.71 1025.17 1025.82 1026.83 1027.52 1027.34 1026.43 1020.84 1016.92 1016.42 1016.16 1016.19 1016.09 1015.94 1015.64 1015.51
1023.84 1023.60 1022.25 1022.06 1023.78 1024.87 1024.49 1024.08 1023.65 1023.57 1023.51 1023.51 1023.56 1023.59 1023.68 1023.86 1024.03 1023.72 1023.50 1023.16 1023.47 1023.89 1024.37 1025.00 1025.87 1025.92 1025.35 1025.18 1024.87 1024.85 1024.86 1025.28 1026.01 1026.34 1026.02 1025.21 1019.32 1016.44 1016.20 1016.01 1015.93 1016.04 1015.64 1015.34 1015.07
1024.18 1024.68 1024.08 1024.20 1025.04 1024.76 1024.59 1024.23 1023.87 1023.56 1023.46 1023.48 1023.66 1023.76 1023.96 1024.07 1024.04 1024.01 1023.74 1023.40 1023.57 1023.84 1024.07 1024.74 1025.77 1026.12 1025.74 1024.96 1024.66 1024.88 1024.67 1024.91 1025.23 1025.59 1024.38 1021.28 1017.98 1016.35 1015.62 1015.67 1015.29 1015.29 1015.12 1014.88 1014.61
1024.84 1026.20 1026.27 1026.04 1025.79 1025.21 1024.64 1024.26 1023.95 1023.75 1023.74 1023.71 1023.86 1023.91 1024.12 1024.43 1024.44 1024.43 1024.15 1023.90 1023.98 1024.18 1024.72 1025.36 1026.04 1026.21 1025.72 1025.04 1024.69 1024.23 1024.13 1024.22 1024.25 1023.57 1023.09 1018.89 1018.38 1015.43 1015.64 1015.53 1015.04 1014.87 1014.65 1014.40 1013.91
1025.37 1025.98 1026.36 1026.32 1025.90 1025.25 1024.85 1024.44 1024.11 1023.77 1023.84 1023.90 1024.12 1023.96 1024.25 1024.42 1023.97 1024.05 1024.10 1024.25 1024.18 1024.84 1025.33 1026.10 1026.19 1026.34 1025.64 1024.51 1024.32 1023.35 1022.22 1022.43 1022.62 1022.24 1021.40 1019.61 1017.67 1015.78 1015.10 1015.19 1014.83 1014.63 1014.47 1014.14 1013.58
1025.72 1025.84 1025.75 1026.14 1025.78 1025.43 1024.92 1024.33 1023.84 1023.60 1023.56 1023.49 1023.76 1024.01 1024.10 1023.57 1023.51 1023.51 1023.63 1023.85 1024.08 1024.72 1025.69 1026.31 1026.65 1026.78 1025.52 1024.53 1023.51 1021.55 1019.36 1020.18 1020.43 1019.93 1019.60 1019.33 1015.74 1015.42 1015.00 1014.99 1014.69 1014.21 1013.92 1013.57 1012.94
Thickness
5472 5474 5485 5506 5521 5532 5549 5558 5569 5579 5591 5600 5608 5618 5626 5635 5645 5649 5647 5650 5663 5674 5682 5687 5692 5692 5693 5684 5681 5679 5658 5651 5658 5659 5662 5661 5665 5672 5671 5672 5675 5681 5682 5681 5682
5473 5479 5491 5511 5523 5530 5545 5558 5567 5577 5588 5595 5604 5615 5623 5631 5639 5634 5636 5650 5662 5670 5675 5679 5679 5683 5673 5671 5667 5661 5646 5654 5653 5655 5656 5656 5656 5657 5664 5666 5669 5674 5677 5677 5676
5480 5489 5501 5514 5526 5539 5549 5562 5567 5575 5584 5592 5602 5613 5623 5629 5631 5619 5636 5648 5657 5667 5672 5675 5676 5676 5664 5660 5654 5656 5645 5651 5651 5653 5652 5652 5654 5654 5657 5660 5663 5666 5665 5666 5668
5495 5503 5510 5518 5529 5543 5549 5557 5565 5573 5581 5591 5601 5612 5622 5627 5615 5619 5632 5644 5652 5664 5666 5666 5666 5660 5649 5648 5649 5643 5645 5649 5649 5650 5650 5649 5647 5648 5651 5659 5661 5656 5656 5655 5657
5508 5513 5521 5526 5535 5543 5549 5556 5564 5571 5580 5591 5601 5611 5618 5604 5603 5618 5628 5639 5650 5657 5653 5657 5653 5653 5644 5643 5643 5642 5640 5643 5641 5642 5643 5644 5641 5641 5646 5653 5653 5655 5655 5653 5650
5522 5528 5528 5537 5543 5549 5549 5556 5563 5572 5582 5592 5600 5610 5612 5596 5606 5615 5625 5634 5640 5647 5645 5649 5649 5648 5640 5635 5634 5632 5634 5635 5636 5638 5639 5636 5637 5638 5652 5652 5653 5654 5651 5646 5644
5538 5542 5538 5544 5548 5550 5552 5558 5564 5573 5583 5592 5601 5608 5603 5591 5606 5615 5623 5628 5634 5640 5641 5642 5645 5646 5636 5631 5627 5628 5633 5633 5630 5631 5631 5629 5638 5627 5642 5643 5641 5641 5640 5638 5637
5538 5542 5543 5547 5549 5551 5555 5562 5569 5575 5584 5593 5601 5606 5588 5599 5606 5614 5621 5626 5630 5635 5638 5638 5639 5634 5626 5624 5619 5615 5615 5616 5624 5624 5623 5624 5626 5639 5638 5634 5632 5630 5630 5626 5627
5539 5541 5544 5547 5550 5552 5558 5565 5572 5579 5587 5597 5601 5602 5586 5599 5602 5608 5615 5619 5625 5630 5631 5634 5630 5614 5611 5607 5599 5591 5608 5607 5609 5612 5613 5613 5617 5629 5629 5625 5625 5625 5618 5617 5617
5547 5549 5549 5549 5549 5552 5559 5564 5573 5582 5588 5595 5594 5597 5587 5587 5597 5603 5611 5617 5618 5622 5623 5619 5601 5589 5581 5574 5591 5598 5593 5594 5590 5605 5601 5595 5605 5619 5620 5616 5614 5612 5608 5609 5608
5553 5552 5551 5552 5554 5557 5564 5566 5563 5564 5565 5562 5567 5573 5582 5589 5597 5600 5606 5612 5613 5606 5599 5596 5577 5564 5587 5590 5590 5586 5585 5582 5582 5591 5586 5593 5594 5617 5623 5613 5607 5605 5605 5604 5604
5556 5556 5556 5555 5557 5560 5562 5550 5546 5559 5556 5563 5572 5576 5581 5587 5592 5596 5605 5603 5600 5582 5595 5584 5574 5584 5587 5588 5587 5582 5578 5577 5581 5584 5581 5581 5596 5610 5617 5621 5617 5612 5603 5601 5602
5561 5562 5563 5563 5562 5561 5552 5550 5557 5563 5564 5566 5571 5576 5581 5587 5583 5588 5595 5595 5589 5582 5577 5577 5583 5585 5585 5584 5582 5578 5578 5577 5566 5571 5573 5564 5595 5617 5622 5617 5612 5605 5602 5601 5600
5566 5568 5571 5573 5571 5561 5556 5557 5562 5567 5538 5558 5571 5576 5582 5585 5583 5587 5588 5590 5585 5584 5580 5577 5579 5581 5580 5580 5577 5578 5577 5574 5565 5552 5542 5559 5582 5607 5612 5609 5615 5613 5605 5605 5604
5572 5572 5574 5578 5569 5564 5564 5568 5571 5572 5519 5563 5569 5582 5583 5582 5583 5585 5587 5590 5582 5581 5578 5579 5575 5577 5579 5582 5578 5575 5575 5567 5565 5550 5536 5565 5535 5603 5602 5618 5623 5624 5617 5609 5605
5577 5579 5580 5577 5573 5568 5571 5573 5573 5540 5517 5548 5568 5572 5579 5580 5582 5584 5587 5586 5583 5577 5578 5576 5577 5575 5577 5577 5576 5574 5566 5551 5546 5545 5523 5559 5543 5588 5595 5609 5627 5625 5621 5615 5610
5581 5581 5582 5579 5573 5572 5574 5571 5542 5524 5550 5561 5564 5571 5573 5574 5581 5582 5581 5575 5567 5554 5528 5565 5576 5577 5577 5576 5575 5561 5524 5516 5539 5528 5558 5544 5526 5596 5621 5621 5623 5624 5618 5614 5610
5586 5585 5582 5579 5577 5576 5574 5562 5535 5555 5557 5565 5567 5571 5572 5575 5579 5581 5578 5569 5575 5563 5533 5538 5558 5577 5575 5576 5564 5558 5541 5515 5548 5527 5530 5551 5554 5606 5624 5626 5623 5618 5612 5609 5607
5591 5587 5586 5585 5583 5581 5573 5534 5543 5555 5567 5569 5574 5576 5575 5580 5580 5581 5580 5572 5576 5577 5567 5551 5572 5577 5574 5576 5574 5565 5540 5553 5529 5521 5524 5529 5570 5612 5625 5619 5623 5619 5616 5613 5611
5594 5590 5590 5592 5590 5585 5564 5560 5564 5564 5574 5576 5578 5576 5577 5577 5580 5580 5581 5584 5583 5581 5576 5569 5552 5575 5577 5578 5570 5573 5558 5545 5521 5538 5543 5544 5549 5570 5610 5628 5630 5626 5622 5619 5614
5596 5595 5599 5599 5597 5584 5554 5558 5571 5579 5581 5581 5578 5579 5578 5579 5579 5578 5582 5585 5583 5579 5578 5567 5557 5570 5575 5571 5566 5561 5555 5547 5536 5531 5531 5527 5574 5592 5597 5622 5623 5620 5618 5614 5610
5593 5590 5602 5605 5588 5559 5569 5582 5588 5585 5586 5585 5585 5584 5582 5581 5579 5578 5579 5583 5582 5578 5577 5572 5550 5538 5571 5572 5570 5569 5563 5554 5541 5551 5526 5527 5571 5619 5611 5614 5613 5609 5609 5608 5605
5585 5583 5601 5602 5570 5569 5582 5589 5590 5587 5587 5586 5585 5585 5584 5583 5582 5582 5585 5588 5579 5579 5572 5568 5552 5527 5567 5565 5567 5567 5560 5558 5542 5534 5535 5527 5591 5620 5608 5613 5610 5605 5606 5605 5604
5583 5572 5582 5580 5568 5578 5586 5587 5587 5587 5588 5587 5586 5585 5583 5581 5579 5581 5583 5587 5581 5582 5582 5574 5548 5555 5548 5582 5570 5566 5565 5553 5555 5525 5546 5573 5608 5626 5626 5619 5616 5607 5604 5602 5602
5571 5564 5561 5567 5572 5578 5583 5583 5585 5585 5582 5582 5582 5580 5577 5576 5575 5567 5573 5579 5578 5577 5568 5563 5552 5537 5548 5552 5556 5563 5564 5555 5546 5568 5562 5603 5586 5620 5609 5609 5614 5604 5600 5600 5603
5569 5566 5554 5554 5560 5577 5571 5577 5580 5583 5577 5578 5576 5579 5566 5568 5573 5576 5575 5572 5573 5563 5559 5546 5549 5543 5535 5552 5547 5554 5564 5561 5560 5565 5564 5579 5594 5607 5612 5606 5595 5594 5596 5600 5601
5555 5555 5561 5554 5556 5563 5565 5576 5578 5580 5577 5578 5572 5572 5566 5567 5569 5571 5570 5570 5570 5557 5545 5540 5535 5531 5541 5546 5544 5564 5581 5571 5562 5560 5568 5560 5601 5602 5600 5594 5592 5596 5596 5596 5602